Tracking 35274 objects as of 12-Sep-2026
HD Live streaming from Space Station
objects crossing your sky now

DRAGON CRS-1 DEB


DRAGON CRS-1 DEB is no longer on orbit


NORAD ID: 38850
Int'l Code: 2012-054E
Launch date: October 8, 2012
Source: United States (US)
Launch site: AIR FORCE EASTERN TEST RANGE (AFETR)
Decay date: 2012-10-13

Note: This is SATELLITE DEBRIS
Your satellite tracking list
Your tracking list is empty




NASA's NSSDC Master Catalog

Two Line Element Set (TLE):
1 38850U 12054E   12284.99277615  .11208386  12430-4  16751-2 0  9994
2 38850 051.6230 265.1698 0037003 061.6499 299.5785 16.31161849   485
Source of the keplerian elements: AFSPC